Weather History for Durango, CO

Change the Weather History Date:

Tuesday, June 4, 2013

  Actual Average Record
Temperature  
Mean Temperature 63 °F 59 °F  
Max Temperature 86 °F 78 °F 91 °F (1990)
Min Temperature 40 °F 40 °F 28 °F (1999)
Degree Days  
Heating Degree Days 2 7  
Month to date heating degree days 21 28  
Since 1 June heating degree days 21 28  
Since 1 July heating degree days 7127 7036  
Cooling Degree Days 0 0  
Month to date cooling degree days 0 0  
Year to date cooling degree days 0 1  
Since 1 June cooling degree days 0 0  
Growing Degree Days 13 (Base 50)    
Moisture  
Dew Point 27 °F    
Average Humidity 34    
Maximum Humidity 57    
Minimum Humidity 10    
Precipitation  
Precipitation 0.00 in 0.02 in 0.39 in (1973)
Month to date precipitation T 0.06  
Year to date precipitation 3.75 5.49  
Sea Level Pressure  
Sea Level Pressure 29.85 in    
Wind  
Wind Speed 6 mph (WNW)    
Max Wind Speed 21 mph    
Max Gust Speed 28 mph    
Visibility 10 miles    
Events      
T = Trace of Precipitation, MM = Missing Value Source: NWS Daily Summary

Daily Weather History Graph

Daily Weather History Graph

Search for Another Location

Airport:

Trip Planner

Search our weather history database for the weather conditions in past years. The results will help you decide how hot, cold, wet, or windy it might be!

Date:

Astronomy

Jun. 04, 2013 Rise Set
Actual Time 5:51 AM MDT 8:27 PM MDT
Civil Twilight 5:21 AM MDT 8:58 PM MDT
Nautical Twilight 4:43 AM MDT 9:36 PM MDT
Astronomical Twilight 4:00 AM MDT 10:18 PM MDT
Moon 3:18 AM MDT (6/4) 5:03 PM MDT (6/4)
Length of Visible Light 15h 37m
Length of Day
14h 36m
Waning Crescent, 14% of the Moon is Illuminated
Jun 4
Waning Crescent
Jun 8
New
Jun 16
First Quarter
Jun 23
Full
Jun 29
Last Quarter

Hourly Weather History & Observations

Time (MDT) Temp. Windchill Dew Point Humidity Pressure Visibility Wind Dir Wind Speed Gust Speed Precip Events Conditions
12:53 AM 50.0 °F - 30.0 °F 46% 29.83 in 10.0 mi Calm Calm - N/A   Clear
1:53 AM 51.1 °F - 28.0 °F 41% 29.84 in 10.0 mi North 6.9 mph - N/A   Clear
2:53 AM 45.0 °F - 28.0 °F 52% 29.86 in 10.0 mi Calm Calm - N/A   Clear
3:53 AM 43.0 °F - 28.0 °F 56% 29.87 in 10.0 mi Calm Calm - N/A   Clear
4:53 AM 42.1 °F - 28.9 °F 60% 29.90 in 10.0 mi Calm Calm - N/A   Clear
5:53 AM 43.0 °F - 28.9 °F 58% 29.90 in 10.0 mi Calm Calm - N/A   Clear
6:53 AM 46.0 °F 44.8 °F 30.9 °F 56% 29.90 in 10.0 mi NE 3.5 mph - N/A   Partly Cloudy
7:53 AM 54.0 °F - 34.0 °F 47% 29.90 in 10.0 mi Calm Calm - N/A   Clear
8:53 AM 64.0 °F - 33.1 °F 31% 29.88 in 10.0 mi Calm Calm - N/A   Clear
9:53 AM 70.0 °F - 28.0 °F 21% 29.90 in 10.0 mi SE 11.5 mph - N/A   Clear
10:53 AM 73.9 °F - 30.0 °F 20% 29.91 in 10.0 mi Variable 4.6 mph - N/A   Clear
11:53 AM 77.0 °F - 30.0 °F 18% 29.88 in 10.0 mi Calm Calm - N/A   Clear
12:53 PM 80.1 °F - 28.9 °F 15% 29.86 in 10.0 mi Variable 3.5 mph - N/A   Clear
1:53 PM 81.0 °F - 27.0 °F 14% 29.84 in 10.0 mi WSW 10.4 mph 26.5 mph N/A   Clear
2:53 PM 84.0 °F - 27.0 °F 13% 29.83 in 10.0 mi West 15.0 mph 23.0 mph N/A   Partly Cloudy
3:53 PM 82.9 °F - 25.0 °F 12% 29.83 in 10.0 mi WSW 4.6 mph 19.6 mph N/A   Clear
4:53 PM 84.0 °F - 24.1 °F 11% 29.81 in 10.0 mi West 15.0 mph 24.2 mph N/A   Clear
5:53 PM 82.9 °F - 21.0 °F 10% 29.81 in 10.0 mi West 12.7 mph 25.3 mph N/A   Clear
6:53 PM 81.0 °F - 21.9 °F 11% 29.80 in 10.0 mi WNW 16.1 mph 21.9 mph N/A   Clear
7:53 PM 78.1 °F - 21.9 °F 12% 29.80 in 10.0 mi West 11.5 mph 20.7 mph N/A   Clear
8:53 PM 73.0 °F - 23.0 °F 15% 29.79 in 10.0 mi West 9.2 mph - N/A   Clear
9:53 PM 70.0 °F - 23.0 °F 17% 29.80 in 10.0 mi Calm Calm - N/A   Clear
10:53 PM 60.1 °F - 26.1 °F 27% 29.83 in 10.0 mi NNE 4.6 mph - N/A   Clear
11:53 PM 57.9 °F - 26.1 °F 30% 29.83 in 10.0 mi North 3.5 mph - N/A   Clear